SCP
0 -0 0 -0 -0 -0 -0 -0 -0 -0 0 -0 -0 -0 -0 -0 -0 -0 -0 -0 -0 -0 -0 -0 0 0 -0 -0 -0 -0 -0 -0 -0 -0 -0 0 0 0 0 0 0 0 -0
-0 -0 -0 -0 -0 -0 -0 -0 -0 0 0 -0 -0 -0 -0 -0 -0 -0 -0 -0 -0 -0 -0 -0 0 -0 -0 -0 -0 -0 -0 -0 0 -0 0 0 0 0 0 0 0 0 -0
0 -0 -0 -0 -0 -0 -0 -0 0 0 -0 -0 -0 -0 -0 0 -0 -0 -0 -0 0 -0 0 -0 -0 -0 0 -0 -0 -0 0 0 0 -0 0 0 0 0 0 0 0 0 0
0 -0 -0 -0 -0 -0 -0 -0 -0 0 -0 -0 -0 -0 -0 0 -0 -0 -0 -0 -0 0 0 0 0 -0 0 0 0 0 0 0 0 -0 0 0 0 0 0 0 0 0 0
-0 0 -0 -0 -0 -0 -0 -0 -0 -0 -0 -0 -0 -0 -0 0 0 -0 -0 -0 -0 -0 -0 0 0 0 0 0 0 0 0 0 0 0 0 0 0 0 0 0 0 0 0
-0 -0 -0 -0 -0 -0 -0 -0 -0 -0 -0 0 -0 -0 -0 -0 -0 0 -0 0 -0 0 -0 -0 -0 0 0 0 0 0 0 0 0 0 0 0 0 0 0 0 0 0 0
-0 -0 -0 0 -0 -0 -0 -0 -0 -0 -0 -0 -0 0 -0 -0 -0 0 0 0 0 0 0 0 -0 0 0 0 0 0 0 0 -0 0 0 0 0 0 0 0 0 0 0
-0 -0 -0 -0 -0 -0 -0 -0 -0 -0 -0 0 0 0 -0 -0 -0 0 0 0 0 0 0 0 0 0 0 0 0 0 0 0 0 0 0 0 0 0 0 0 0 0 0
-0 -0 -0 -0 -0 -0 -0 -0 -0 -0 -0 0 0 0 0 0 0 0 0 0 0 0 0 0 0 0 0 0 0 0 0 0 -0 0 0 0 0 0 0 0 0 0 0
-0 -0 -0 -0 -0 -0 -0 -0 0 0 -0 -0 0 0 0 0 0 0 0 0 0 0 0 0 0 0 0 0 0 0 0 0 0 0 0 0 0 0 0 0 0 0 0
0 -0 -0 0 -0 -0 -0 -0 -0 0 0 0 0 0 0 0 0 0 0 0 0 0 0 0 0 0 0 0 0 0 0 0 0 0 0 0 0 0 0 0 0 0 0
-0 -0 0 0 0 0 0 0 0 0 0 0 0 0 0 0 0 0 0 0 0 0 0 0 0 0 0 0 0 0 0 0 0 0 0 0 0 0 0 0 0 0 0
-0 -0 -0 0 0 0 0 0 0 0 0 0 0 0 0 0 0 0 0 0 0 0 0 0 0 0 0 0 0 0 0 0 0 0 0 0 0 0 0 0 0 0 0
0 0 0 0 0 0 0 0 0 0 0 0 0 0 0 0 0 0 0 0 0 0 0 0 0 0 0 0 0 0 0 0 0 0 0 0 0 0 0 0 0 0 0
0 0 0 0 0 0 0 0 0 0 0 0 0 0 0 0 0 0 0 0 0 0 0 0 0 0 0 0 0 0 0 0 0 0 0 0 0 0 0 0 0 0 0
0 0 0 0 0 0 0 0 0 0 0 0 0 0 0 0 0 0 0 0 0 0 0 0 0 0 0 0 0 0 0 0 0 0 0 0 0 0 0 0 0 0 0
0 0 0 0 0 0 0 0 0 0 0 0 0 0 0 0 0 0 0 0 0 0 0 0 0 0 0 0 0 0 0 0 0 0 0 0 0 0 0 0 0 0 0
0 0 0 0 0 0 0 0 0 0 0 0 0 0 0 0 0 0 0 0 0 0 0 0 0 0 0 0 0 0 0 0 0 0 0 0 0 0 0 0 0 0 0
0 0 0 0 0 0 0 0 0 0 0 0 0 0 0 0 0 0 0 0 0 0 0 0 0 0 0 0 0 0 0 0 0 0 0 0 0 0 0 0 0 0 0
0 0 0 0 0 0 0 0 0 0 0 0 0 0 0 0 0 0 0 0 0 0 0 0 0 0 0 0 0 0 0 0 0 0 0 0 0 0 0 0 0 0 0
0 0 0 0 0 0 0 0 0 0 0 0 0 0 0 0 0 0 0 0 0 0 0 0 0 0 0 0 0 0 0 0 0 0 0 0 0 0 0 0 0 0 0
0 0 0 0 0 0 0 0 0 0 0 0 0 0 0 0 0 0 0 0 0 0 0 0 0 0 0 0 0 0 0 0 0 0 0 0 0 0 0 0 0 0 0
0 0 0 0 0 0 0 0 0 0 0 0 0 0 0 0 0 0 0 0 0 0 0 0 0 0 0 0 0 0 0 0 0 0 0 0 0 0 0 0 0 0 0
0 0 0 0 0 0 0 0 0 0 0 0 0 0 0 0 0 0 0 0 0 0 0 0 0 0 0 0 0 0 0 0 0 0 0 0 0 0 0 0 0 0 0
0 0 0 0 0 0 0 0 0 0 0 0 0 0 0 0 0 0 0 0 0 0 0 0 0 0 0 0 0 0 0 0 0 0 0 0 0 0 0 0 0 0 0
0 0 0 0 0 0 0 0 0 0 0 0 0 0 0 0 0 0 0 0 0 0 0 0 0 0 0 0 0 0 0 0 0 0 0 0 0 0 0 0 0 0 0
Wind_Speed_500mb
16 14 19 16 14 7 5 9 10 9 15 16 11 9 4 4 6 7 15 15 19 22 14 14 10 17 21 17 14 11 8 7 9 12 13 10 8 10 9 14 19 18 18
22 18 19 14 13 5 3 7 8 8 9 14 11 10 7 5 4 2 10 18 17 13 12 17 17 17 16 12 8 4 2 6 9 11 14 17 5 7 4 6 10 12 18
22 17 19 16 12 4 4 5 4 2 12 10 6 13 12 9 5 3 6 7 8 8 18 20 18 14 12 8 8 5 5 8 11 11 10 5 5 5 3 5 10 17 17
19 17 18 17 11 3 5 5 1 6 6 14 7 2 2 5 3 7 5 8 11 11 14 16 13 13 12 6 4 3 5 8 10 9 8 6 4 3 4 8 10 15 15
19 20 20 14 4 3 5 4 3 7 10 11 7 6 7 7 3 6 3 5 5 11 11 7 13 12 10 8 7 7 7 11 14 15 6 7 2 6 6 7 3 10 18
20 22 15 13 7 4 2 4 4 10 17 15 14 14 8 6 9 8 5 5 4 3 10 5 18 14 9 7 10 10 12 13 13 9 6 11 9 10 6 11 14 12 13
18 19 15 11 7 4 3 4 4 7 18 18 20 13 12 8 9 10 7 10 7 7 4 3 11 12 17 10 11 14 13 13 7 6 5 2 11 6 4 7 8 9 11
17 16 15 12 10 7 4 4 4 3 19 23 22 15 17 19 13 11 11 12 13 10 4 4 6 10 13 17 19 16 15 13 10 8 5 3 14 9 11 10 11 11 10
17 16 18 14 13 11 9 7 6 5 7 17 28 21 21 18 21 19 18 18 14 12 11 9 10 12 16 19 23 25 23 17 3 11 7 5 20 19 11 12 13 11 12
15 18 17 16 17 15 15 12 11 11 9 9 15 20 23 23 24 23 26 24 24 16 17 15 15 16 18 20 23 25 24 22 16 16 12 19 20 18 14 14 15 13 15
11 14 18 20 19 18 17 18 18 17 16 14 16 19 23 23 26 30 29 25 19 22 21 22 21 22 22 21 22 24 25 23 15 19 17 29 25 21 14 17 10 14 18
13 14 16 17 20 21 21 23 24 25 24 22 22 21 23 23 23 24 27 24 23 24 24 26 27 29 30 26 21 25 25 20 23 23 23 34 29 24 18 22 25 20 20
16 19 17 21 22 22 24 23 27 26 29 28 27 27 26 24 29 33 33 33 30 29 30 29 31 32 24 22 23 23 22 24 25 24 26 38 33 29 26 22 27 32 30
17 18 22 25 25 28 28 28 26 31 31 32 33 33 34 33 33 31 28 27 29 25 29 30 27 28 31 35 35 34 32 30 28 29 30 41 37 36 33 31 29 32 38
15 18 21 26 33 33 35 36 33 32 36 35 36 38 39 38 37 34 34 33 31 29 29 32 34 36 36 38 36 40 39 41 42 42 43 45 42 42 42 39 37 37 35
21 25 26 30 33 40 42 41 44 40 37 39 39 41 42 42 41 39 38 38 37 35 33 33 35 37 39 40 40 42 43 43 45 48 49 49 52 46 48 46 46 44 42
30 32 32 37 38 44 48 50 48 51 52 48 46 42 43 45 43 43 41 41 40 38 38 39 40 41 43 43 46 44 47 47 49 50 52 55 58 60 52 52 52 52 50
42 40 39 41 55 55 50 49 54 52 55 58 52 49 48 47 45 44 46 44 41 40 40 40 39 41 43 40 42 44 47 49 51 52 53 56 58 61 63 57 56 57 58
40 39 42 42 45 52 57 50 49 51 52 55 55 51 52 52 50 47 46 47 43 44 43 45 47 48 49 47 45 50 50 51 53 54 58 59 60 64 69 68 63 62 63
32 37 44 46 47 42 49 52 51 49 52 58 60 55 50 51 50 48 49 49 48 50 50 51 52 52 54 56 57 60 64 66 65 68 66 66 66 67 70 73 71 70 66
40 40 44 44 44 39 42 49 52 55 52 60 64 63 57 48 49 50 50 50 51 55 54 52 51 55 63 63 65 68 70 70 71 75 71 68 71 62 66 69 70 70 71
45 45 47 48 46 41 38 40 38 35 38 49 46 48 51 48 47 50 50 49 49 49 52 53 56 61 65 64 63 66 57 59 68 68 62 56 63 60 60 57 62 62 63
35 34 34 37 38 38 34 31 34 33 34 32 31 32 37 38 34 38 40 44 44 45 50 50 49 50 57 57 57 55 29 31 40 51 58 59 63 66 61 64 66 70 67
25 25 24 23 22 20 25 26 29 30 28 22 18 19 24 23 25 24 30 33 39 43 46 47 46 48 49 54 55 59 62 67 51 41 34 46 51 69 77 77 78 76 73
18 16 14 12 13 16 22 25 23 25 25 26 24 21 19 21 24 24 27 28 32 34 37 39 41 42 44 48 52 57 65 67 72 74 62 62 58 68 75 75 77 81 80
10 9 7 6 6 1 8 17 24 27 27 27 23 23 24 26 30 34 30 30 27 27 31 36 38 40 40 43 48 52 53 63 64 66 64 71 67 69 69 75 79 80 82
Wind_Direction_500mb
140 173 159 155 153 135 54 24 38 74 120 123 141 156 200 143 110 181 191 190 169 152 124 157 133 137 133 119 119 111 114 56 37 24 23 13 357 8 33 72 71 74 86
149 170 157 156 160 153 27 10 19 88 103 165 160 194 213 239 295 255 179 194 190 154 144 125 135 138 149 146 132 106 46 5 1 357 15 11 5 0 30 111 119 75 83
146 176 161 162 184 226 356 0 12 136 124 147 223 231 256 268 278 276 179 136 114 115 136 137 142 136 140 163 196 230 284 314 337 3 59 79 356 63 45 102 96 90 90
151 164 175 169 184 277 334 336 306 189 174 175 219 331 311 264 219 147 170 105 131 111 127 155 159 133 114 165 216 270 309 347 356 11 58 105 87 127 136 124 108 105 100
156 165 184 180 201 279 315 319 250 196 190 147 162 206 289 353 211 197 157 140 146 153 160 197 183 150 135 220 263 304 336 352 2 49 47 108 110 216 165 135 157 142 120
165 178 184 191 221 246 281 313 284 208 194 165 178 211 250 289 329 270 190 205 162 238 198 212 192 190 190 238 272 295 320 349 49 18 31 124 172 262 245 192 202 163 139
173 187 192 208 226 260 299 317 295 203 199 174 195 190 196 245 288 281 264 237 231 226 239 213 178 207 203 209 279 280 301 343 64 358 23 74 265 282 232 184 204 181 152
176 198 221 215 228 246 274 299 319 272 199 187 201 194 193 221 250 286 283 234 249 246 248 256 226 223 222 237 247 286 300 324 44 327 335 307 292 301 258 217 206 198 183
183 201 223 235 234 242 252 267 282 269 245 228 218 204 208 229 235 255 265 259 249 242 247 249 255 247 244 249 259 273 286 297 244 269 280 297 296 319 264 236 235 222 213
210 203 222 230 253 245 250 253 258 260 256 242 220 216 211 225 240 254 264 256 253 252 250 243 249 254 257 261 266 275 283 288 283 273 274 256 283 305 281 256 236 251 245
233 235 221 232 228 232 237 253 255 257 254 248 244 227 229 234 242 251 258 263 256 251 252 270 268 261 261 264 270 276 281 285 278 272 267 269 289 298 286 279 265 272 259
269 259 257 242 244 236 239 243 258 259 255 252 247 244 241 236 237 241 260 268 270 266 258 259 271 275 266 268 279 279 273 277 262 267 269 268 283 284 282 270 282 284 280
258 263 276 270 251 243 246 246 253 247 252 249 244 242 242 238 240 255 248 264 259 261 260 261 259 265 268 265 251 255 261 264 266 271 269 272 278 278 274 267 259 275 283
258 258 258 285 277 263 247 252 244 244 247 245 247 249 242 243 248 247 254 250 261 252 261 255 268 270 264 248 261 257 259 259 259 264 270 277 280 277 274 268 260 255 269
269 268 269 272 284 282 262 254 248 245 247 245 248 251 249 247 251 252 252 251 250 256 252 256 247 252 258 269 265 266 267 269 271 272 275 277 283 280 275 270 262 257 252
285 285 282 278 278 277 280 265 255 254 248 251 248 249 254 251 251 254 257 257 257 256 256 256 258 260 264 264 261 265 271 273 274 274 275 276 281 277 275 273 266 258 255
283 285 283 283 274 274 278 279 264 254 258 253 256 255 250 258 255 254 257 259 261 263 263 260 262 264 262 263 268 265 270 275 279 276 278 279 278 278 274 272 270 266 259
283 282 281 278 283 274 265 269 273 264 255 260 254 252 258 256 259 256 257 258 260 263 264 268 268 269 270 266 269 266 269 278 279 279 280 281 279 280 282 276 272 268 266
282 280 278 274 269 267 268 260 257 261 262 262 261 256 251 256 260 260 259 260 255 259 260 265 269 270 272 271 269 274 276 275 278 283 286 285 284 283 282 282 279 272 268
286 282 278 276 274 265 263 262 254 248 253 258 266 265 256 253 257 258 258 257 255 262 264 266 270 270 272 277 276 274 275 283 285 285 285 287 287 288 284 283 280 277 272
286 284 283 279 273 264 257 256 250 249 248 254 261 265 267 259 253 255 257 257 259 261 266 267 265 267 270 273 275 278 281 283 283 285 286 285 286 288 286 283 279 279 278
294 293 288 279 277 266 253 247 243 242 245 264 269 262 264 263 252 249 257 258 256 257 265 268 264 266 271 272 267 277 280 285 288 291 292 287 284 283 280 278 281 282 282
304 302 297 284 273 268 257 243 238 235 239 242 239 258 274 271 260 252 254 255 256 254 259 268 267 271 271 276 276 272 273 279 283 284 283 282 283 286 280 276 276 277 280
309 314 312 301 279 268 252 237 232 233 240 248 247 243 246 258 270 271 265 261 258 261 263 270 270 270 276 279 285 282 285 285 283 290 290 282 276 283 289 289 287 285 285
312 322 328 323 291 251 234 206 218 233 233 228 232 230 240 244 250 253 253 266 273 276 279 278 281 284 284 289 290 294 291 293 286 275 278 284 286 287 289 287 288 286 288
302 318 333 357 3 114 194 199 204 214 223 232 245 249 245 252 250 253 253 252 259 269 277 278 281 279 284 290 291 291 297 287 285 282 281 285 288 289 287 292 295 295 292
Wind_Speed_850mb
16 14 19 16 14 7 5 9 10 9 15 16 11 9 4 4 6 7 15 15 19 22 14 14 10 17 21 17 14 11 8 7 9 12 13 10 8 10 9 14 19 18 18
22 18 19 14 13 5 3 7 8 8 9 14 11 10 7 5 4 2 10 18 17 13 12 17 17 17 16 12 8 4 2 6 9 11 14 17 5 7 4 6 10 12 18
22 17 19 16 12 4 4 5 4 2 12 10 6 13 12 9 5 3 6 7 8 8 18 20 18 14 12 8 8 5 5 8 11 11 10 5 5 5 3 5 10 17 17
19 17 18 17 11 3 5 5 1 6 6 14 7 2 2 5 3 7 5 8 11 11 14 16 13 13 12 6 4 3 5 8 10 9 8 6 4 3 4 8 10 15 15
19 20 20 14 4 3 5 4 3 7 10 11 7 6 7 7 3 6 3 5 5 11 11 7 13 12 10 8 7 7 7 11 14 15 6 7 2 6 6 7 3 10 18
20 22 15 13 7 4 2 4 4 10 17 15 14 14 8 6 9 8 5 5 4 3 10 5 18 14 9 7 10 10 12 13 13 9 6 11 9 10 6 11 14 12 13
18 19 15 11 7 4 3 4 4 7 18 18 20 13 12 8 9 10 7 10 7 7 4 3 11 12 17 10 11 14 13 13 7 6 5 2 11 6 4 7 8 9 11
17 16 15 12 10 7 4 4 4 3 19 23 22 15 17 19 13 11 11 12 13 10 4 4 6 10 13 17 19 16 15 13 10 8 5 3 14 9 11 10 11 11 10
17 16 18 14 13 11 9 7 6 5 7 17 28 21 21 18 21 19 18 18 14 12 11 9 10 12 16 19 23 25 23 17 3 11 7 5 20 19 11 12 13 11 12
15 18 17 16 17 15 15 12 11 11 9 9 15 20 23 23 24 23 26 24 24 16 17 15 15 16 18 20 23 25 24 22 16 16 12 19 20 18 14 14 15 13 15
11 14 18 20 19 18 17 18 18 17 16 14 16 19 23 23 26 30 29 25 19 22 21 22 21 22 22 21 22 24 25 23 15 19 17 29 25 21 14 17 10 14 18
13 14 16 17 20 21 21 23 24 25 24 22 22 21 23 23 23 24 27 24 23 24 24 26 27 29 30 26 21 25 25 20 23 23 23 34 29 24 18 22 25 20 20
16 19 17 21 22 22 24 23 27 26 29 28 27 27 26 24 29 33 33 33 30 29 30 29 31 32 24 22 23 23 22 24 25 24 26 38 33 29 26 22 27 32 30
17 18 22 25 25 28 28 28 26 31 31 32 33 33 34 33 33 31 28 27 29 25 29 30 27 28 31 35 35 34 32 30 28 29 30 41 37 36 33 31 29 32 38
15 18 21 26 33 33 35 36 33 32 36 35 36 38 39 38 37 34 34 33 31 29 29 32 34 36 36 38 36 40 39 41 42 42 43 45 42 42 42 39 37 37 35
21 25 26 30 33 40 42 41 44 40 37 39 39 41 42 42 41 39 38 38 37 35 33 33 35 37 39 40 40 42 43 43 45 48 49 49 52 46 48 46 46 44 42
30 32 32 37 38 44 48 50 48 51 52 48 46 42 43 45 43 43 41 41 40 38 38 39 40 41 43 43 46 44 47 47 49 50 52 55 58 60 52 52 52 52 50
42 40 39 41 55 55 50 49 54 52 55 58 52 49 48 47 45 44 46 44 41 40 40 40 39 41 43 40 42 44 47 49 51 52 53 56 58 61 63 57 56 57 58
40 39 42 42 45 52 57 50 49 51 52 55 55 51 52 52 50 47 46 47 43 44 43 45 47 48 49 47 45 50 50 51 53 54 58 59 60 64 69 68 63 62 63
32 37 44 46 47 42 49 52 51 49 52 58 60 55 50 51 50 48 49 49 48 50 50 51 52 52 54 56 57 60 64 66 65 68 66 66 66 67 70 73 71 70 66
40 40 44 44 44 39 42 49 52 55 52 60 64 63 57 48 49 50 50 50 51 55 54 52 51 55 63 63 65 68 70 70 71 75 71 68 71 62 66 69 70 70 71
45 45 47 48 46 41 38 40 38 35 38 49 46 48 51 48 47 50 50 49 49 49 52 53 56 61 65 64 63 66 57 59 68 68 62 56 63 60 60 57 62 62 63
35 34 34 37 38 38 34 31 34 33 34 32 31 32 37 38 34 38 40 44 44 45 50 50 49 50 57 57 57 55 29 31 40 51 58 59 63 66 61 64 66 70 67
25 25 24 23 22 20 25 26 29 30 28 22 18 19 24 23 25 24 30 33 39 43 46 47 46 48 49 54 55 59 62 67 51 41 34 46 51 69 77 77 78 76 73
18 16 14 12 13 16 22 25 23 25 25 26 24 21 19 21 24 24 27 28 32 34 37 39 41 42 44 48 52 57 65 67 72 74 62 62 58 68 75 75 77 81 80
10 9 7 6 6 1 8 17 24 27 27 27 23 23 24 26 30 34 30 30 27 27 31 36 38 40 40 43 48 52 53 63 64 66 64 71 67 69 69 75 79 80 82
Wind_Direction_850mb
140 173 159 155 153 135 54 24 38 74 120 123 141 156 200 143 110 181 191 190 169 152 124 157 133 137 133 119 119 111 114 56 37 24 23 13 357 8 33 72 71 74 86
149 170 157 156 160 153 27 10 19 88 103 165 160 194 213 239 295 255 179 194 190 154 144 125 135 138 149 146 132 106 46 5 1 357 15 11 5 0 30 111 119 75 83
146 176 161 162 184 226 356 0 12 136 124 147 223 231 256 268 278 276 179 136 114 115 136 137 142 136 140 163 196 230 284 314 337 3 59 79 356 63 45 102 96 90 90
151 164 175 169 184 277 334 336 306 189 174 175 219 331 311 264 219 147 170 105 131 111 127 155 159 133 114 165 216 270 309 347 356 11 58 105 87 127 136 124 108 105 100
156 165 184 180 201 279 315 319 250 196 190 147 162 206 289 353 211 197 157 140 146 153 160 197 183 150 135 220 263 304 336 352 2 49 47 108 110 216 165 135 157 142 120
165 178 184 191 221 246 281 313 284 208 194 165 178 211 250 289 329 270 190 205 162 238 198 212 192 190 190 238 272 295 320 349 49 18 31 124 172 262 245 192 202 163 139
173 187 192 208 226 260 299 317 295 203 199 174 195 190 196 245 288 281 264 237 231 226 239 213 178 207 203 209 279 280 301 343 64 358 23 74 265 282 232 184 204 181 152
176 198 221 215 228 246 274 299 319 272 199 187 201 194 193 221 250 286 283 234 249 246 248 256 226 223 222 237 247 286 300 324 44 327 335 307 292 301 258 217 206 198 183
183 201 223 235 234 242 252 267 282 269 245 228 218 204 208 229 235 255 265 259 249 242 247 249 255 247 244 249 259 273 286 297 244 269 280 297 296 319 264 236 235 222 213
210 203 222 230 253 245 250 253 258 260 256 242 220 216 211 225 240 254 264 256 253 252 250 243 249 254 257 261 266 275 283 288 283 273 274 256 283 305 281 256 236 251 245
233 235 221 232 228 232 237 253 255 257 254 248 244 227 229 234 242 251 258 263 256 251 252 270 268 261 261 264 270 276 281 285 278 272 267 269 289 298 286 279 265 272 259
269 259 257 242 244 236 239 243 258 259 255 252 247 244 241 236 237 241 260 268 270 266 258 259 271 275 266 268 279 279 273 277 262 267 269 268 283 284 282 270 282 284 280
258 263 276 270 251 243 246 246 253 247 252 249 244 242 242 238 240 255 248 264 259 261 260 261 259 265 268 265 251 255 261 264 266 271 269 272 278 278 274 267 259 275 283
258 258 258 285 277 263 247 252 244 244 247 245 247 249 242 243 248 247 254 250 261 252 261 255 268 270 264 248 261 257 259 259 259 264 270 277 280 277 274 268 260 255 269
269 268 269 272 284 282 262 254 248 245 247 245 248 251 249 247 251 252 252 251 250 256 252 256 247 252 258 269 265 266 267 269 271 272 275 277 283 280 275 270 262 257 252
285 285 282 278 278 277 280 265 255 254 248 251 248 249 254 251 251 254 257 257 257 256 256 256 258 260 264 264 261 265 271 273 274 274 275 276 281 277 275 273 266 258 255
283 285 283 283 274 274 278 279 264 254 258 253 256 255 250 258 255 254 257 259 261 263 263 260 262 264 262 263 268 265 270 275 279 276 278 279 278 278 274 272 270 266 259
283 282 281 278 283 274 265 269 273 264 255 260 254 252 258 256 259 256 257 258 260 263 264 268 268 269 270 266 269 266 269 278 279 279 280 281 279 280 282 276 272 268 266
282 280 278 274 269 267 268 260 257 261 262 262 261 256 251 256 260 260 259 260 255 259 260 265 269 270 272 271 269 274 276 275 278 283 286 285 284 283 282 282 279 272 268
286 282 278 276 274 265 263 262 254 248 253 258 266 265 256 253 257 258 258 257 255 262 264 266 270 270 272 277 276 274 275 283 285 285 285 287 287 288 284 283 280 277 272
286 284 283 279 273 264 257 256 250 249 248 254 261 265 267 259 253 255 257 257 259 261 266 267 265 267 270 273 275 278 281 283 283 285 286 285 286 288 286 283 279 279 278
294 293 288 279 277 266 253 247 243 242 245 264 269 262 264 263 252 249 257 258 256 257 265 268 264 266 271 272 267 277 280 285 288 291 292 287 284 283 280 278 281 282 282
304 302 297 284 273 268 257 243 238 235 239 242 239 258 274 271 260 252 254 255 256 254 259 268 267 271 271 276 276 272 273 279 283 284 283 282 283 286 280 276 276 277 280
309 314 312 301 279 268 252 237 232 233 240 248 247 243 246 258 270 271 265 261 258 261 263 270 270 270 276 279 285 282 285 285 283 290 290 282 276 283 289 289 287 285 285
312 322 328 323 291 251 234 206 218 233 233 228 232 230 240 244 250 253 253 266 273 276 279 278 281 284 284 289 290 294 291 293 286 275 278 284 286 287 289 287 288 286 288
302 318 333 357 3 114 194 199 204 214 223 232 245 249 245 252 250 253 253 252 259 269 277 278 281 279 284 290 291 291 297 287 285 282 281 285 288 289 287 292 295 295 292